Change the Weather History Date:

Monday, April 23, 2012

  Actual Average Record
Temperature  
Mean Temperature 52 °F 65 °F  
Max Temperature 60 °F 76 °F 93 °F (1980)
Min Temperature 43 °F 54 °F 37 °F (1986)
Degree Days  
Heating Degree Days 13 3  
Month to date heating degree days 101 113  
Since 1 July heating degree days 1815 2365  
Cooling Degree Days 0 3  
Month to date cooling degree days 47 44  
Year to date cooling degree days 122 65  
Growing Degree Days 3 (Base 50)    
Moisture  
Dew Point 42 °F    
Average Humidity 63    
Maximum Humidity 89    
Minimum Humidity 37    
Precipitation  
Precipitation 0.01 in 0.10 in 3.24 in (1928)
Month to date precipitation 0.77 2.16  
Year to date precipitation 8.28 13.75  
Snow  
Snow 0.00 in 0.00 in - ()
Month to date snowfall 0.0 0.0  
Since 1 July snowfall T 1.7  
Snow Depth 0.00 in    
Sea Level Pressure  
Sea Level Pressure 29.59 in    
Wind  
Wind Speed 12 mph (WNW)    
Max Wind Speed 24 mph    
Max Gust Speed 32 mph    
Visibility 10 miles    
Events Rain    
T = Trace of Precipitation, MM = Missing Value Source: NWS Daily Summary

Daily Weather History Graph

Daily Weather History Graph

Search for Another Location

Airport or City:

Trip Planner

Search our weather history database for the weather conditions in past years. The results will help you decide how hot, cold, wet, or windy it might be!

Date:

Astronomy

Apr. 23, 2012 Rise Set
Actual Time 6:30 AM EDT 7:49 PM EDT
Civil Twilight 6:03 AM EDT 8:16 PM EDT
Nautical Twilight 5:32 AM EDT 8:47 PM EDT
Astronomical Twilight 4:59 AM EDT 9:20 PM EDT
Moon 7:45 AM EDT (4/23) 10:11 PM EDT (4/23)
Length of Visible Light 14h 12m
Length of Day
13h 19m
Waxing Crescent, 5% of the Moon is Illuminated
Apr 23
Waxing Crescent
Apr 29
First Quarter
May 5
Full
May 12
Last Quarter
May 20
New

Hourly Weather History & Observations

Time (EDT) Temp. Windchill Dew Point Humidity Pressure Visibility Wind Dir Wind Speed Gust Speed Precip Events Conditions
12:53 AM 54.0 °F - 48.9 °F 83% 29.53 in 10.0 mi NW 15.0 mph 21.9 mph N/A   Overcast
1:27 AM 53.6 °F - 50.0 °F 88% 29.52 in 10.0 mi NW 10.4 mph - N/A   Overcast
1:37 AM 53.6 °F - 50.0 °F 88% 29.52 in 9.0 mi NW 11.5 mph - N/A   Overcast
1:53 AM 52.0 °F - 50.0 °F 93% 29.52 in 3.0 mi NW 16.1 mph - 0.01 in Rain Light Rain
2:03 AM 51.8 °F - 48.2 °F 88% 29.51 in 7.0 mi NNW 20.7 mph 32.2 mph 0.00 in Rain Light Rain
2:19 AM 51.8 °F - 48.2 °F 88% 29.51 in 10.0 mi NNW 12.7 mph 21.9 mph N/A   Overcast
2:53 AM 51.1 °F - 46.9 °F 86% 29.48 in 10.0 mi NNE 12.7 mph - 0.00 in   Overcast
3:26 AM 51.8 °F - 48.2 °F 88% 29.51 in 10.0 mi West 10.4 mph - N/A   Overcast
3:50 AM 51.8 °F - 48.2 °F 88% 29.52 in 10.0 mi West 10.4 mph - N/A   Overcast
3:53 AM 51.8 °F - 48.2 °F 88% 29.52 in 10.0 mi West 10.4 mph - N/A   Overcast
4:29 AM 51.8 °F - 48.2 °F 88% 29.52 in 10.0 mi WNW 11.5 mph - N/A   Overcast
4:53 AM 51.1 °F - 46.0 °F 83% 29.53 in 10.0 mi WNW 16.1 mph - N/A   Overcast
5:19 AM 51.8 °F - 46.4 °F 82% 29.53 in 10.0 mi West 11.5 mph - N/A   Overcast
5:53 AM 51.1 °F - 45.0 °F 80% 29.53 in 10.0 mi West 10.4 mph - N/A   Overcast
6:53 AM 50.0 °F - 45.0 °F 83% 29.54 in 10.0 mi West 9.2 mph - N/A   Partly Cloudy
7:53 AM 50.0 °F - 44.1 °F 80% 29.56 in 10.0 mi West 12.7 mph - N/A   Mostly Cloudy
8:53 AM 53.1 °F - 42.1 °F 66% 29.57 in 10.0 mi West 16.1 mph - N/A   Mostly Cloudy
9:53 AM 55.9 °F - 41.0 °F 57% 29.56 in 10.0 mi WNW 17.3 mph - N/A   Scattered Clouds
10:53 AM 57.0 °F - 39.0 °F 51% 29.56 in 10.0 mi WNW 15.0 mph 21.9 mph N/A   Mostly Cloudy
11:53 AM 57.0 °F - 35.1 °F 44% 29.55 in 10.0 mi WNW 16.1 mph 23.0 mph N/A   Mostly Cloudy
12:53 PM 59.0 °F - 35.1 °F 41% 29.56 in 10.0 mi West 19.6 mph 27.6 mph N/A   Mostly Cloudy
1:53 PM 57.9 °F - 35.1 °F 42% 29.56 in 10.0 mi West 20.7 mph 27.6 mph N/A   Overcast
2:53 PM 57.2 °F - 35.6 °F 44% 29.58 in 10.0 mi WNW 19.6 mph 27.6 mph N/A   Overcast
3:53 PM 59.0 °F - 34.0 °F 39% 29.57 in 10.0 mi West 17.3 mph 26.5 mph N/A   Overcast
4:53 PM 57.9 °F - 35.1 °F 42% 29.60 in 10.0 mi West 19.6 mph 25.3 mph N/A   Overcast
5:53 PM 55.0 °F - 34.0 °F 45% 29.63 in 10.0 mi WNW 15.0 mph 28.8 mph N/A   Overcast
6:53 PM 52.0 °F - 37.9 °F 59% 29.68 in 10.0 mi NW 13.8 mph - N/A   Overcast
7:53 PM 50.0 °F - 37.0 °F 61% 29.72 in 10.0 mi NW 6.9 mph - N/A   Partly Cloudy
8:53 PM 48.0 °F - 37.9 °F 68% 29.75 in 10.0 mi NW 3.5 mph - N/A   Partly Cloudy
9:53 PM 46.0 °F 44.8 °F 39.9 °F 79% 29.76 in 10.0 mi South 3.5 mph - N/A   Overcast
10:53 PM 46.9 °F - 39.9 °F 77% 29.76 in 10.0 mi SSW 6.9 mph - N/A   Mostly Cloudy
11:53 PM 44.1 °F - 39.0 °F 82% 29.78 in 10.0 mi Calm Calm - N/A   Clear